Location: Clover
(42.5131°N, 114.6874°W)
Time: 13:13:13
(UTC+00:00)

ARIANE 6 FM1 Upper Stage - Pass Details

Date: 25 January 2026
Orbit: 522 x 609 km, 62.0° (Epoch: 11 February)

Event Time Altitude Azimuth Distance (km) Brightness Sun altitude
Rises 03:10:28 0° 259° (WSW) 2,700 7.4 -27.2°
Reaches altitude 10° 03:13:15 10° 278° (W) 1,796 6.2 -27.7°
Maximum altitude 03:16:05 18° 323° (NW) 1,348 4.9 -28.2°
Enters shadow 03:16:24 18° 329° (NNW) 1,353 4.9 -28.3°
